| time (UTC) | temp F | wind direction | speed MPH | gust MPH | rain 1hr in | rain 24hr in | rain mn in | humidity % | barometer mb |
| 20260831051040 | 60 | 148 | 0.0 | 0.0 | 0.00 | 0.00 | 0.00 | 97 | 1004.6 |
| 20260831050547 | 60 | 148 | 0.0 | 0.0 | 0.00 | 0.00 | 0.00 | 97 | 1004.5 |
| 20260831050053 | 60 | 148 | 0.0 | 0.0 | 0.00 | 0.00 | 0.00 | 97 | 1004.5 |
| 20260831045530 | 60 | 148 | 0.0 | 0.0 | 0.00 | 0.00 | 0.00 | 97 | 1004.4 |
| 20260831045039 | 61 | 148 | 0.0 | 0.0 | 0.00 | 0.00 | 0.00 | 97 | 1004.3 |
| 20260831044530 | 61 | 148 | 0.0 | 0.0 | 0.00 | 0.00 | 0.00 | 97 | 1004.4 |
| 20260831044122 | 61 | 148 | 0.0 | 0.0 | 0.00 | 0.00 | 0.00 | 97 | 1004.4 |
| 20260831043548 | 61 | 148 | 0.0 | 0.0 | 0.00 | 0.00 | 0.00 | 97 | 1004.4 |
| 20260831043030 | 61 | 148 | 0.0 | 0.0 | 0.00 | 0.00 | 0.00 | 97 | 1004.3 |
| 20260831042556 | 61 | 148 | 0.0 | 0.0 | 0.00 | 0.00 | 0.00 | 97 | 1004.4 |
| 20260831042107 | 61 | 148 | 0.0 | 0.0 | 0.00 | 0.00 | 0.00 | 97 | 1004.5 |
| 20260831041520 | 61 | 148 | 0.0 | 0.0 | 0.00 | 0.00 | 0.00 | 97 | 1004.4 |
| 20260831041029 | 60 | 148 | 0.0 | 0.0 | 0.00 | 0.00 | 0.00 | 96 | 1004.4 |
| 20260831040540 | 60 | 148 | 0.0 | 0.0 | 0.00 | 0.00 | 0.00 | 96 | 1004.4 |
| 20260831040039 | 60 | 148 | 0.0 | 0.0 | 0.00 | 0.00 | 0.00 | 95 | 1004.3 |
| 20260831035529 | 61 | 148 | 0.0 | 0.0 | 0.00 | 0.00 | 0.00 | 95 | 1004.3 |
| 20260831035037 | 61 | 148 | 0.0 | 0.0 | 0.00 | 0.00 | 0.00 | 95 | 1004.3 |
| 20260831034546 | 61 | 148 | 0.0 | 0.0 | 0.00 | 0.00 | 0.00 | 95 | 1004.3 |
| 20260831034027 | 61 | 148 | 0.0 | 0.0 | 0.00 | 0.00 | 0.00 | 95 | 1004.3 |
| 20260831033538 | 61 | 148 | 0.0 | 0.0 | 0.00 | 0.00 | 0.00 | 94 | 1004.3 |
| 20260831033046 | 62 | 148 | 0.0 | 0.0 | 0.00 | 0.00 | 0.00 | 94 | 1004.2 |
| 20260831032523 | 62 | 148 | 0.0 | 0.0 | 0.00 | 0.00 | 0.00 | 94 | 1004.2 |
| 20260831032028 | 62 | 148 | 0.0 | 0.0 | 0.00 | 0.00 | 0.00 | 93 | 1004.3 |
| 20260831031600 | 63 | 148 | 0.0 | 0.0 | 0.00 | 0.00 | 0.00 | 93 | 1004.3 |
| 20260831031110 | 63 | 148 | 0.0 | 0.0 | 0.00 | 0.00 | 0.00 | 93 | 1004.3 |
| 20260831030525 | 63 | 148 | 0.0 | 0.0 | 0.00 | 0.00 | 0.00 | 93 | 1004.3 |
| 20260831030049 | 64 | 148 | 0.0 | 0.0 | 0.00 | 0.00 | 0.00 | 92 | 1004.2 |
| 20260831025557 | 64 | 148 | 0.0 | 0.0 | 0.00 | 0.00 | 0.00 | 92 | 1004.2 |
| 20260831025024 | 64 | 173 | 0.0 | 0.0 | 0.00 | 0.00 | 0.00 | 91 | 1004.1 |
| 20260831024534 | 65 | 173 | 0.0 | 0.0 | 0.00 | 0.00 | 0.00 | 91 | 1004.1 |
| 20260831024034 | 65 | 173 | 0.0 | 1.0 | 0.00 | 0.00 | 0.00 | 91 | 1003.9 |
| 20260831023522 | 65 | 173 | 0.0 | 1.0 | 0.00 | 0.00 | 0.00 | 90 | 1003.9 |
| 20260831023030 | 66 | 243 | 0.0 | 1.0 | 0.00 | 0.00 | 0.00 | 90 | 1004.0 |
| 20260831022553 | 66 | 243 | 0.0 | 2.0 | 0.00 | 0.00 | 0.00 | 90 | 1004.0 |
| 20260831022104 | 66 | 179 | 0.0 | 2.0 | 0.00 | 0.00 | 0.00 | 90 | 1003.9 |
| 20260831021523 | 66 | 127 | 0.0 | 3.0 | 0.00 | 0.00 | 0.00 | 90 | 1004.0 |
| 20260831021032 | 66 | 127 | 1.0 | 3.0 | 0.00 | 0.00 | 0.00 | 91 | 1003.9 |
| 20260831020544 | 66 | 107 | 0.0 | 1.0 | 0.00 | 0.00 | 0.00 | 90 | 1004.0 |
| 20260831020022 | 66 | 107 | 0.0 | 2.0 | 0.00 | 0.00 | 0.00 | 90 | 1003.9 |
| 20260831015531 | 66 | 106 | 0.0 | 2.0 | 0.00 | 0.00 | 0.00 | 90 | 1003.8 |
| 20260831015038 | 66 | 217 | 0.0 | 3.0 | 0.00 | 0.00 | 0.00 | 90 | 1003.8 |
| 20260831014526 | 65 | 242 | 1.0 | 3.0 | 0.00 | 0.00 | 0.00 | 90 | 1003.7 |
| 20260831014035 | 66 | 98 | 0.0 | 1.0 | 0.00 | 0.00 | 0.00 | 90 | 1003.8 |
| 20260831013534 | 66 | 98 | 0.0 | 2.0 | 0.00 | 0.00 | 0.00 | 90 | 1003.7 |
| 20260831013022 | 66 | 97 | 0.0 | 2.0 | 0.00 | 0.00 | 0.00 | 91 | 1003.7 |
| 20260831012532 | 65 | 90 | 0.0 | 1.0 | 0.00 | 0.00 | 0.00 | 91 | 1003.6 |
| 20260831012027 | 65 | 345 | 0.0 | 1.0 | 0.00 | 0.00 | 0.00 | 91 | 1003.5 |
| 20260831011534 | 65 | 238 | 0.0 | 1.0 | 0.00 | 0.00 | 0.00 | 92 | 1003.5 |
| 20260831011041 | 65 | 238 | 0.0 | 0.0 | 0.00 | 0.00 | 0.00 | 92 | 1003.5 |
| 20260831010529 | 65 | 238 | 0.0 | 2.0 | 0.00 | 0.00 | 0.00 | 92 | 1003.4 |
| 20260831010036 | 65 | 238 | 0.0 | 2.0 | 0.00 | 0.00 | 0.00 | 93 | 1003.3 |
| 20260831005537 | 65 | 252 | 0.0 | 0.0 | 0.00 | 0.00 | 0.00 | 92 | 1003.3 |
| 20260831005026 | 65 | 252 | 0.0 | 0.0 | 0.00 | 0.00 | 0.00 | 92 | 1003.3 |
| 20260831004524 | 65 | 252 | 0.0 | 0.0 | 0.00 | 0.00 | 0.00 | 91 | 1003.3 |
| 20260831004033 | 65 | 252 | 0.0 | 0.0 | 0.00 | 0.00 | 0.00 | 91 | 1003.1 |
| 20260831003542 | 66 | 252 | 0.0 | 0.0 | 0.00 | 0.00 | 0.00 | 90 | 1003.1 |
| 20260831003045 | 66 | 252 | 0.0 | 0.0 | 0.00 | 0.00 | 0.00 | 90 | 1003.0 |
| 20260831002532 | 66 | 252 | 0.0 | 0.0 | 0.00 | 0.00 | 0.00 | 89 | 1002.8 |
| 20260831002042 | 66 | 252 | 0.0 | 2.0 | 0.00 | 0.00 | 0.00 | 89 | 1002.7 |
| 20260831001522 | 66 | 250 | 1.0 | 2.0 | 0.00 | 0.00 | 0.00 | 89 | 1002.7 |
| 20260831001032 | 67 | 293 | 0.0 | 0.0 | 0.00 | 0.00 | 0.00 | 90 | 1002.7 |
| 20260831000544 | 67 | 294 | 0.0 | 0.0 | 0.00 | 0.00 | 0.00 | 89 | 1002.6 |
| 20260831000035 | 67 | 294 | 0.0 | 0.0 | 0.00 | 0.00 | 0.00 | 89 | 1002.5 |
| 20260830235522 | 67 | 294 | 0.0 | 0.0 | 0.00 | 0.00 | 0.00 | 88 | 1002.3 |
| 20260830235031 | 68 | 294 | 0.0 | 0.0 | 0.00 | 0.00 | 0.00 | 88 | 1002.4 |
| 20260830234532 | 68 | 294 | 0.0 | 0.0 | 0.00 | 0.00 | 0.00 | 87 | 1002.4 |
| 20260830234021 | 68 | 294 | 0.0 | 0.0 | 0.00 | 0.00 | 0.00 | 86 | 1002.4 |
| 20260830233532 | 68 | 294 | 0.0 | 0.0 | 0.00 | 0.00 | 0.00 | 85 | 1002.4 |
| 20260830233027 | 68 | 272 | 0.0 | 0.0 | 0.00 | 0.00 | 0.00 | 85 | 1002.4 |
| 20260830232536 | 69 | 272 | 0.0 | 0.0 | 0.00 | 0.00 | 0.00 | 84 | 1002.4 |
| 20260830232045 | 69 | 272 | 0.0 | 3.0 | 0.00 | 0.00 | 0.00 | 83 | 1002.4 |
| 20260830231525 | 69 | 184 | 0.0 | 3.0 | 0.00 | 0.00 | 0.00 | 83 | 1002.3 |
| 20260830231034 | 69 | 117 | 1.0 | 3.0 | 0.00 | 0.00 | 0.00 | 83 | 1002.2 |
| 20260830230547 | 69 | 225 | 0.0 | 3.0 | 0.00 | 0.00 | 0.00 | 84 | 1002.0 |
| 20260830230043 | 69 | 245 | 1.0 | 3.0 | 0.00 | 0.00 | 0.00 | 85 | 1002.1 |
| 20260830225603 | 69 | 269 | 0.0 | 6.0 | 0.00 | 0.00 | 0.00 | 85 | 1002.4 |
| 20260830225022 | 69 | 58 | 1.0 | 6.0 | 0.00 | 0.00 | 0.00 | 85 | 1002.4 |
| 20260830224528 | 69 | 226 | 0.0 | 2.0 | 0.00 | 0.00 | 0.00 | 86 | 1002.3 |
| 20260830224025 | 69 | 205 | 1.0 | 2.0 | 0.00 | 0.00 | 0.00 | 85 | 1002.3 |
| 20260830223537 | 69 | 224 | 0.0 | 1.0 | 0.00 | 0.00 | 0.00 | 86 | 1002.3 |
| 20260830223024 | 69 | 129 | 0.0 | 1.0 | 0.00 | 0.00 | 0.00 | 85 | 1002.3 |
| 20260830222525 | 69 | 245 | 0.0 | 1.0 | 0.00 | 0.00 | 0.00 | 84 | 1002.4 |
| 20260830222035 | 69 | 141 | 0.0 | 1.0 | 0.00 | 0.00 | 0.00 | 84 | 1002.4 |
| 20260830221545 | 69 | 221 | 0.0 | 1.0 | 0.00 | 0.00 | 0.00 | 83 | 1002.4 |
| 20260830221052 | 70 | 221 | 0.0 | 1.0 | 0.00 | 0.00 | 0.00 | 84 | 1002.4 |
| 20260830220604 | 70 | 221 | 0.0 | 3.0 | 0.00 | 0.00 | 0.00 | 83 | 1002.4 |
| 20260830220022 | 70 | 84 | 1.0 | 4.0 | 0.00 | 0.00 | 0.00 | 83 | 1002.4 |
| 20260830215531 | 70 | 94 | 1.0 | 3.0 | 0.00 | 0.00 | 0.00 | 84 | 1002.3 |
| 20260830215038 | 70 | 213 | 0.0 | 3.0 | 0.00 | 0.00 | 0.00 | 84 | 1002.3 |
| 20260830214538 | 71 | 131 | 0.0 | 1.0 | 0.00 | 0.00 | 0.00 | 85 | 1002.2 |
| 20260830214047 | 71 | 290 | 0.0 | 1.0 | 0.00 | 0.00 | 0.00 | 85 | 1002.1 |
| 20260830213532 | 71 | 290 | 0.0 | 0.0 | 0.00 | 0.00 | 0.00 | 85 | 1002.1 |
| 20260830213041 | 72 | 290 | 0.0 | 1.0 | 0.00 | 0.00 | 0.00 | 83 | 1002.1 |
| 20260830212520 | 72 | 290 | 0.0 | 2.0 | 0.00 | 0.00 | 0.00 | 83 | 1002.0 |
| 20260830212030 | 72 | 319 | 0.0 | 1.0 | 0.00 | 0.00 | 0.00 | 82 | 1001.9 |
| 20260830211527 | 72 | 319 | 0.0 | 1.0 | 0.00 | 0.00 | 0.00 | 83 | 1002.0 |
| 20260830211037 | 72 | 283 | 0.0 | 1.0 | 0.00 | 0.00 | 0.00 | 82 | 1001.9 |
| 20260830210528 | 72 | 272 | 0.0 | 1.0 | 0.00 | 0.00 | 0.00 | 83 | 1002.0 |
| 20260830210023 | 72 | 277 | 0.0 | 1.0 | 0.00 | 0.00 | 0.00 | 84 | 1001.9 |
| 20260830205528 | 72 | 233 | 0.0 | 1.0 | 0.00 | 0.00 | 0.00 | 82 | 1001.9 |
| 20260830205048 | 72 | 233 | 0.0 | 1.0 | 0.00 | 0.00 | 0.00 | 82 | 1001.9 |
| 20260830204547 | 72 | 212 | 0.0 | 2.0 | 0.00 | 0.00 | 0.00 | 82 | 1001.9 |
| 20260830204055 | 73 | 212 | 0.0 | 2.0 | 0.00 | 0.00 | 0.00 | 81 | 1001.9 |
| 20260830203525 | 73 | 357 | 0.0 | 1.0 | 0.00 | 0.00 | 0.00 | 82 | 1001.9 |
| 20260830203048 | 74 | 82 | 0.0 | 1.0 | 0.00 | 0.00 | 0.00 | 82 | 1001.8 |
| 20260830202528 | 74 | 83 | 0.0 | 1.0 | 0.00 | 0.00 | 0.00 | 82 | 1001.8 |
| 20260830202037 | 74 | 21 | 0.0 | 2.0 | 0.00 | 0.00 | 0.00 | 80 | 1001.9 |
| 20260830201545 | 75 | 267 | 0.0 | 2.0 | 0.00 | 0.00 | 0.00 | 80 | 1001.9 |
| 20260830201026 | 75 | 45 | 0.0 | 3.0 | 0.00 | 0.00 | 0.00 | 80 | 1002.0 |
| 20260830200536 | 75 | 40 | 1.0 | 3.0 | 0.00 | 0.00 | 0.00 | 78 | 1002.0 |
| 20260830200042 | 76 | 46 | 0.0 | 1.0 | 0.00 | 0.00 | 0.00 | 82 | 1001.9 |
| 20260830195521 | 76 | 46 | 0.0 | 1.0 | 0.00 | 0.00 | 0.00 | 80 | 1002.0 |
| 20260830195031 | 76 | 46 | 0.0 | 1.0 | 0.00 | 0.00 | 0.00 | 81 | 1002.0 |
| 20260830194541 | 76 | 46 | 0.0 | 2.0 | 0.00 | 0.00 | 0.00 | 79 | 1002.0 |
| 20260830194021 | 76 | 49 | 0.0 | 2.0 | 0.00 | 0.00 | 0.00 | 77 | 1002.0 |
| 20260830193533 | 77 | 285 | 0.0 | 3.0 | 0.00 | 0.00 | 0.00 | 76 | 1002.1 |
| 20260830193031 | 77 | 248 | 0.0 | 3.0 | 0.00 | 0.00 | 0.00 | 74 | 1002.2 |
| 20260830192034 | 77 | 292 | 0.0 | 3.0 | 0.00 | 0.00 | 0.00 | 76 | 1002.3 |
| 20260830191535 | 77 | 324 | 0.0 | 3.0 | 0.00 | 0.00 | 0.00 | 76 | 1002.3 |
| 20260830191021 | 77 | 182 | 0.0 | 3.0 | 0.00 | 0.00 | 0.00 | 75 | 1002.4 |
| 20260830190534 | 77 | 308 | 0.0 | 4.0 | 0.00 | 0.00 | 0.00 | 73 | 1002.4 |
| 20260830190032 | 77 | 258 | 0.0 | 4.0 | 0.00 | 0.00 | 0.00 | 71 | 1002.5 |
| 20260830185521 | 78 | 359 | 0.0 | 3.0 | 0.00 | 0.00 | 0.00 | 75 | 1002.5 |
| 20260830185022 | 79 | 352 | 1.0 | 3.0 | 0.00 | 0.00 | 0.00 | 71 | 1002.7 |
| 20260830184530 | 78 | 10 | 0.0 | 2.0 | 0.00 | 0.00 | 0.00 | 74 | 1002.7 |
| 20260830184020 | 77 | 252 | 0.0 | 4.0 | 0.00 | 0.00 | 0.00 | 78 | 1002.8 |
| 20260830183532 | 76 | 259 | 1.0 | 4.0 | 0.00 | 0.00 | 0.00 | 77 | 1002.8 |
| 20260830183028 | 76 | 262 | 1.0 | 3.0 | 0.00 | 0.00 | 0.00 | 75 | 1002.8 |
| 20260830182537 | 75 | 304 | 0.0 | 3.0 | 0.00 | 0.00 | 0.00 | 75 | 1003.0 |
| 20260830182027 | 75 | 74 | 0.0 | 2.0 | 0.00 | 0.00 | 0.00 | 78 | 1003.1 |
| 20260830181527 | 75 | 333 | 0.0 | 2.0 | 0.00 | 0.00 | 0.00 | 75 | 1003.1 |
| 20260830181037 | 75 | 326 | 1.0 | 2.0 | 0.00 | 0.00 | 0.00 | 76 | 1003.2 |
| 20260830180548 | 75 | 255 | 0.0 | 1.0 | 0.00 | 0.00 | 0.00 | 78 | 1003.2 |
| 20260830180027 | 75 | 221 | 0.0 | 1.0 | 0.00 | 0.00 | 0.00 | 80 | 1003.3 |
| 20260830175531 | 75 | 220 | 0.0 | 2.0 | 0.00 | 0.00 | 0.00 | 78 | 1003.4 |
| 20260830175041 | 74 | 209 | 0.0 | 2.0 | 0.00 | 0.00 | 0.00 | 78 | 1003.4 |
| 20260830174541 | 74 | 79 | 0.0 | 2.0 | 0.00 | 0.00 | 0.00 | 80 | 1003.5 |
| 20260830174102 | 74 | 279 | 0.0 | 2.0 | 0.00 | 0.00 | 0.00 | 82 | 1003.6 |
| 20260830173522 | 74 | 279 | 0.0 | 2.0 | 0.00 | 0.00 | 0.00 | 77 | 1003.6 |
| 20260830173031 | 74 | 311 | 1.0 | 2.0 | 0.00 | 0.00 | 0.00 | 78 | 1003.6 |
| 20260830172531 | 74 | 293 | 0.0 | 1.0 | 0.00 | 0.00 | 0.00 | 79 | 1003.7 |
| 20260830172021 | 74 | 337 | 0.0 | 1.0 | 0.00 | 0.00 | 0.00 | 79 | 1003.6 |
| 20260830171530 | 73 | 337 | 0.0 | 2.0 | 0.00 | 0.00 | 0.00 | 82 | 1003.8 |
| 20260830171056 | 73 | 336 | 0.0 | 2.0 | 0.00 | 0.00 | 0.00 | 82 | 1003.9 |
| 20260830170605 | 73 | 283 | 0.0 | 2.0 | 0.00 | 0.00 | 0.00 | 81 | 1003.9 |
| 20260830170022 | 73 | 281 | 0.0 | 2.0 | 0.00 | 0.00 | 0.00 | 80 | 1004.0 |
| 20260830165547 | 73 | 264 | 0.0 | 0.0 | 0.00 | 0.00 | 0.00 | 80 | 1004.1 |
| 20260830165055 | 73 | 264 | 0.0 | 0.0 | 0.00 | 0.00 | 0.00 | 84 | 1004.0 |
| 20260830164523 | 73 | 264 | 0.0 | 0.0 | 0.00 | 0.00 | 0.00 | 83 | 1004.1 |
| 20260830164024 | 72 | 264 | 0.0 | 1.0 | 0.00 | 0.00 | 0.00 | 83 | 1004.1 |
| 20260830163536 | 72 | 264 | 0.0 | 1.0 | 0.00 | 0.00 | 0.00 | 80 | 1004.1 |
| 20260830163024 | 72 | 264 | 1.0 | 1.0 | 0.00 | 0.00 | 0.00 | 79 | 1004.1 |
| 20260830162523 | 72 | 266 | 0.0 | 1.0 | 0.00 | 0.00 | 0.00 | 82 | 1004.1 |
| 20260830162032 | 72 | 266 | 0.0 | 0.0 | 0.00 | 0.00 | 0.00 | 85 | 1004.2 |
| 20260830161521 | 71 | 266 | 0.0 | 1.0 | 0.00 | 0.00 | 0.00 | 84 | 1004.3 |
| 20260830161023 | 71 | 266 | 0.0 | 1.0 | 0.00 | 0.00 | 0.00 | 83 | 1004.3 |
| 20260830160535 | 71 | 266 | 0.0 | 1.0 | 0.00 | 0.00 | 0.00 | 83 | 1004.4 |
| 20260830160043 | 71 | 267 | 0.0 | 1.0 | 0.00 | 0.00 | 0.00 | 85 | 1004.5 |
| 20260830155551 | 71 | 267 | 0.0 | 1.0 | 0.00 | 0.00 | 0.00 | 84 | 1004.7 |
| 20260830155030 | 71 | 266 | 0.0 | 1.0 | 0.00 | 0.00 | 0.00 | 83 | 1004.8 |
| 20260830154540 | 70 | 266 | 0.0 | 1.0 | 0.00 | 0.00 | 0.00 | 83 | 1004.8 |
| 20260830154037 | 70 | 266 | 0.0 | 1.0 | 0.00 | 0.00 | 0.00 | 83 | 1004.8 |
| 20260830153528 | 70 | 320 | 0.0 | 1.0 | 0.00 | 0.00 | 0.00 | 82 | 1004.8 |
| 20260830153026 | 70 | 320 | 0.0 | 1.0 | 0.00 | 0.00 | 0.00 | 80 | 1004.9 |
| 20260830152536 | 70 | 320 | 0.0 | 0.0 | 0.00 | 0.00 | 0.00 | 82 | 1005.0 |
| 20260830152046 | 70 | 320 | 0.0 | 1.0 | 0.00 | 0.00 | 0.00 | 82 | 1005.0 |
| 20260830151554 | 70 | 320 | 0.0 | 2.0 | 0.00 | 0.00 | 0.00 | 84 | 1004.9 |
| 20260830151104 | 69 | 73 | 0.0 | 2.0 | 0.00 | 0.00 | 0.00 | 86 | 1004.9 |
| 20260830150525 | 69 | 357 | 0.0 | 1.0 | 0.00 | 0.00 | 0.00 | 87 | 1004.9 |
| 20260830150032 | 68 | 357 | 0.0 | 1.0 | 0.00 | 0.00 | 0.00 | 86 | 1004.8 |
| 20260830145542 | 68 | 357 | 0.0 | 2.0 | 0.00 | 0.00 | 0.00 | 86 | 1004.9 |
| 20260830145022 | 68 | 262 | 0.0 | 2.0 | 0.00 | 0.00 | 0.00 | 86 | 1005.0 |
| 20260830144532 | 68 | 327 | 0.0 | 2.0 | 0.00 | 0.00 | 0.00 | 85 | 1005.1 |
| 20260830144032 | 67 | 344 | 0.0 | 0.0 | 0.00 | 0.00 | 0.00 | 88 | 1005.3 |
| 20260830143543 | 67 | 344 | 0.0 | 1.0 | 0.00 | 0.00 | 0.00 | 89 | 1005.0 |
| 20260830143028 | 66 | 338 | 0.0 | 1.0 | 0.00 | 0.00 | 0.00 | 91 | 1005.2 |
| 20260830142550 | 66 | 103 | 0.0 | 1.0 | 0.00 | 0.00 | 0.00 | 91 | 1005.2 |
| 20260830142046 | 66 | 246 | 0.0 | 1.0 | 0.00 | 0.00 | 0.00 | 92 | 1005.0 |
| 20260830141605 | 66 | 246 | 0.0 | 1.0 | 0.00 | 0.00 | 0.00 | 92 | 1005.2 |
| 20260830141021 | 65 | 246 | 0.0 | 1.0 | 0.00 | 0.00 | 0.00 | 92 | 1005.5 |
| 20260830140532 | 65 | 246 | 0.0 | 0.0 | 0.00 | 0.00 | 0.00 | 92 | 1005.0 |
| 20260830140046 | 65 | 246 | 0.0 | 0.0 | 0.00 | 0.00 | 0.00 | 92 | 1005.0 |
| 20260830135535 | 65 | 246 | 0.0 | 0.0 | 0.00 | 0.00 | 0.00 | 92 | 1005.4 |
| 20260830135035 | 65 | 245 | 0.0 | 0.0 | 0.00 | 0.00 | 0.00 | 92 | 1005.3 |
| 20260830134525 | 65 | 246 | 0.0 | 0.0 | 0.00 | 0.00 | 0.00 | 91 | 1005.4 |
| 20260830134022 | 64 | 246 | 0.0 | 0.0 | 0.00 | 0.00 | 0.00 | 90 | 1005.4 |
| 20260830133533 | 64 | 246 | 0.0 | 0.0 | 0.00 | 0.00 | 0.00 | 90 | 1005.5 |
| 20260830133038 | 65 | 294 | 0.0 | 0.0 | 0.00 | 0.00 | 0.00 | 90 | 1005.5 |
| 20260830132543 | 65 | 297 | 0.0 | 1.0 | 0.00 | 0.00 | 0.00 | 90 | 1005.4 |
| 20260830132023 | 64 | 301 | 0.0 | 0.0 | 0.00 | 0.00 | 0.00 | 91 | 1005.4 |
| 20260830131530 | 64 | 246 | 0.0 | 0.0 | 0.00 | 0.00 | 0.00 | 92 | 1005.4 |
| 20260830131040 | 64 | 262 | 0.0 | 0.0 | 0.00 | 0.00 | 0.00 | 93 | 1005.3 |
| 20260830130522 | 63 | 304 | 0.0 | 0.0 | 0.00 | 0.00 | 0.00 | 94 | 1005.4 |
| 20260830130026 | 63 | 357 | 0.0 | 0.0 | 0.00 | 0.00 | 0.00 | 95 | 1005.4 |
| 20260830125526 | 62 | 345 | 0.0 | 0.0 | 0.00 | 0.00 | 0.00 | 96 | 1005.5 |
| 20260830125035 | 62 | 297 | 0.0 | 0.0 | 0.00 | 0.00 | 0.00 | 97 | 1005.5 |
| 20260830124524 | 61 | 279 | 0.0 | 0.0 | 0.00 | 0.00 | 0.00 | 97 | 1005.6 |
| 20260830124024 | 61 | 279 | 0.0 | 0.0 | 0.00 | 0.00 | 0.00 | 97 | 1005.7 |
| 20260830123536 | 61 | 279 | 0.0 | 0.0 | 0.00 | 0.00 | 0.00 | 97 | 1005.8 |
| 20260830123027 | 61 | 279 | 0.0 | 0.0 | 0.00 | 0.00 | 0.00 | 98 | 1005.7 |
| 20260830122527 | 60 | 11 | 0.0 | 0.0 | 0.00 | 0.00 | 0.00 | 98 | 1005.7 |
| 20260830122037 | 60 | 321 | 0.0 | 0.0 | 0.00 | 0.00 | 0.00 | 98 | 1005.7 |
| 20260830121524 | 60 | 312 | 0.0 | 0.0 | 0.00 | 0.00 | 0.00 | 99 | 1005.8 |
| 20260830121031 | 60 | 301 | 0.0 | 0.0 | 0.00 | 0.00 | 0.00 | 99 | 1005.6 |
| 20260830120533 | 60 | 58 | 0.0 | 0.0 | 0.00 | 0.00 | 0.00 | 99 | 1005.7 |
| 20260830120021 | 60 | 60 | 0.0 | 0.0 | 0.00 | 0.00 | 0.00 | 99 | 1005.6 |
| 20260830115545 | 60 | 262 | 0.0 | 0.0 | 0.00 | 0.00 | 0.00 | 99 | 1005.6 |
| 20260830115036 | 60 | 263 | 0.0 | 0.0 | 0.00 | 0.00 | 0.00 | 99 | 1005.6 |
| 20260830114535 | 59 | 234 | 0.0 | 0.0 | 0.00 | 0.00 | 0.00 | 99 | 1005.6 |
| 20260830114043 | 59 | 234 | 0.0 | 0.0 | 0.00 | 0.00 | 0.00 | 99 | 1005.6 |
| 20260830113553 | 59 | 234 | 0.0 | 0.0 | 0.00 | 0.00 | 0.00 | 99 | 1005.5 |
| 20260830113039 | 58 | 224 | 0.0 | 0.0 | 0.00 | 0.00 | 0.00 | 99 | 1005.7 |
| 20260830112548 | 58 | 224 | 0.0 | 0.0 | 0.00 | 0.00 | 0.00 | 99 | 1005.8 |
| 20260830112047 | 58 | 224 | 0.0 | 0.0 | 0.00 | 0.00 | 0.00 | 99 | 1005.8 |
| 20260830111608 | 58 | 224 | 0.0 | 0.0 | 0.00 | 0.00 | 0.00 | 99 | 1005.8 |
| 20260830111043 | 58 | 224 | 0.0 | 0.0 | 0.00 | 0.00 | 0.00 | 99 | 1005.9 |
| 20260830110549 | 58 | 224 | 0.0 | 0.0 | 0.00 | 0.00 | 0.00 | 99 | 1005.9 |
| 20260830110054 | 58 | 224 | 0.0 | 0.0 | 0.00 | 0.00 | 0.00 | 99 | 1005.9 |
| 20260830105523 | 58 | 224 | 0.0 | 0.0 | 0.00 | 0.00 | 0.00 | 99 | 1005.8 |
| 20260830105034 | 58 | 222 | 0.0 | 0.0 | 0.00 | 0.00 | 0.00 | 99 | 1005.8 |
| 20260830104534 | 58 | 222 | 0.0 | 0.0 | 0.00 | 0.00 | 0.00 | 99 | 1005.7 |
| 20260830104042 | 57 | 222 | 0.0 | 0.0 | 0.00 | 0.00 | 0.00 | 99 | 1005.7 |
| 20260830103551 | 57 | 222 | 0.0 | 0.0 | 0.00 | 0.00 | 0.00 | 99 | 1005.7 |
| 20260830103038 | 56 | 222 | 0.0 | 0.0 | 0.00 | 0.00 | 0.00 | 99 | 1005.7 |
| 20260830102549 | 56 | 222 | 0.0 | 0.0 | 0.00 | 0.00 | 0.00 | 99 | 1005.7 |
| 20260830102100 | 56 | 222 | 0.0 | 0.0 | 0.00 | 0.00 | 0.00 | 99 | 1005.8 |
| 20260830101605 | 56 | 222 | 0.0 | 0.0 | 0.00 | 0.00 | 0.00 | 99 | 1005.9 |
| 20260830101024 | 56 | 222 | 0.0 | 0.0 | 0.00 | 0.00 | 0.00 | 99 | 1005.8 |
| 20260830100536 | 56 | 221 | 0.0 | 0.0 | 0.00 | 0.00 | 0.00 | 99 | 1005.7 |
| 20260830100034 | 56 | 222 | 0.0 | 0.0 | 0.00 | 0.00 | 0.00 | 99 | 1005.7 |
| 20260830095522 | 56 | 222 | 0.0 | 0.0 | 0.00 | 0.00 | 0.00 | 99 | 1005.7 |
| 20260830095029 | 56 | 222 | 0.0 | 0.0 | 0.00 | 0.00 | 0.00 | 99 | 1005.8 |
| 20260830094538 | 56 | 222 | 0.0 | 0.0 | 0.00 | 0.00 | 0.00 | 99 | 1005.8 |
| 20260830094048 | 56 | 221 | 0.0 | 0.0 | 0.00 | 0.00 | 0.00 | 99 | 1005.8 |
| 20260830093601 | 56 | 222 | 0.0 | 0.0 | 0.00 | 0.00 | 0.00 | 99 | 1005.8 |
| 20260830093110 | 55 | 222 | 0.0 | 0.0 | 0.00 | 0.00 | 0.00 | 99 | 1005.9 |
| 20260830092529 | 55 | 222 | 0.0 | 0.0 | 0.00 | 0.00 | 0.00 | 99 | 1005.9 |
| 20260830092038 | 55 | 121 | 0.0 | 0.0 | 0.00 | 0.00 | 0.00 | 99 | 1005.9 |
| 20260830091547 | 55 | 121 | 0.0 | 0.0 | 0.00 | 0.00 | 0.00 | 99 | 1006.0 |
| 20260830091043 | 55 | 122 | 0.0 | 0.0 | 0.00 | 0.00 | 0.00 | 99 | 1005.9 |
| 20260830090550 | 55 | 122 | 0.0 | 0.0 | 0.00 | 0.00 | 0.00 | 99 | 1005.8 |
| 20260830090108 | 55 | 121 | 0.0 | 0.0 | 0.00 | 0.00 | 0.00 | 99 | 1005.9 |
| 20260830085546 | 54 | 122 | 0.0 | 0.0 | 0.00 | 0.00 | 0.00 | 99 | 1006.0 |
| 20260830085034 | 54 | 121 | 0.0 | 0.0 | 0.00 | 0.00 | 0.00 | 99 | 1006.1 |
| 20260830084544 | 54 | 122 | 0.0 | 0.0 | 0.00 | 0.00 | 0.00 | 99 | 1006.1 |
| 20260830084025 | 54 | 122 | 0.0 | 0.0 | 0.00 | 0.00 | 0.00 | 98 | 1006.1 |
| 20260830083536 | 54 | 122 | 0.0 | 0.0 | 0.00 | 0.00 | 0.00 | 98 | 1006.0 |
| 20260830083043 | 54 | 121 | 0.0 | 0.0 | 0.00 | 0.00 | 0.00 | 98 | 1006.0 |
| 20260830082523 | 54 | 121 | 0.0 | 0.0 | 0.00 | 0.00 | 0.00 | 98 | 1006.0 |
| 20260830082033 | 54 | 121 | 0.0 | 0.0 | 0.00 | 0.00 | 0.00 | 98 | 1005.9 |
| 20260830081542 | 54 | 122 | 0.0 | 0.0 | 0.00 | 0.00 | 0.00 | 98 | 1005.9 |
| 20260830081020 | 54 | 122 | 0.0 | 0.0 | 0.00 | 0.00 | 0.00 | 98 | 1006.0 |
| 20260830080532 | 54 | 122 | 0.0 | 0.0 | 0.00 | 0.00 | 0.00 | 98 | 1006.0 |
| 20260830080023 | 54 | 121 | 0.0 | 0.0 | 0.00 | 0.00 | 0.00 | 98 | 1006.0 |
| 20260830075533 | 54 | 122 | 0.0 | 0.0 | 0.00 | 0.00 | 0.00 | 98 | 1005.9 |
| 20260830075023 | 54 | 122 | 0.0 | 0.0 | 0.00 | 0.00 | 0.00 | 98 | 1006.0 |
| 20260830074530 | 54 | 122 | 0.0 | 0.0 | 0.00 | 0.00 | 0.00 | 98 | 1006.1 |
| 20260830074040 | 54 | 122 | 0.0 | 0.0 | 0.00 | 0.00 | 0.00 | 98 | 1006.1 |
| 20260830073522 | 54 | 122 | 0.0 | 0.0 | 0.00 | 0.00 | 0.00 | 98 | 1005.9 |
| 20260830073030 | 54 | 122 | 0.0 | 0.0 | 0.00 | 0.00 | 0.00 | 98 | 1006.0 |
| 20260830072537 | 54 | 122 | 0.0 | 0.0 | 0.00 | 0.00 | 0.00 | 98 | 1006.0 |
| 20260830072038 | 54 | 121 | 0.0 | 0.0 | 0.00 | 0.00 | 0.00 | 98 | 1006.0 |
| 20260830071527 | 54 | 122 | 0.0 | 0.0 | 0.00 | 0.00 | 0.00 | 98 | 1006.0 |
| 20260830071036 | 54 | 121 | 0.0 | 0.0 | 0.00 | 0.00 | 0.00 | 98 | 1005.9 |
| 20260830070539 | 54 | 121 | 0.0 | 0.0 | 0.00 | 0.00 | 0.00 | 98 | 1006.0 |
| 20260830070028 | 54 | 121 | 0.0 | 0.0 | 0.00 | 0.00 | 0.00 | 98 | 1005.9 |
| 20260830065528 | 54 | 122 | 0.0 | 0.0 | 0.00 | 0.00 | 0.00 | 98 | 1005.9 |
| 20260830065038 | 54 | 122 | 0.0 | 0.0 | 0.00 | 0.00 | 0.00 | 98 | 1006.0 |
| 20260830064528 | 54 | 122 | 0.0 | 0.0 | 0.00 | 0.00 | 0.00 | 98 | 1006.0 |
| 20260830064053 | 54 | 122 | 0.0 | 0.0 | 0.00 | 0.00 | 0.00 | 98 | 1005.9 |
| 20260830063529 | 54 | 121 | 0.0 | 0.0 | 0.00 | 0.00 | 0.00 | 98 | 1005.9 |
| 20260830063037 | 54 | 121 | 0.0 | 0.0 | 0.00 | 0.00 | 0.00 | 98 | 1006.0 |
| 20260830062547 | 54 | 121 | 0.0 | 0.0 | 0.00 | 0.00 | 0.00 | 98 | 1006.0 |
| 20260830062025 | 54 | 121 | 0.0 | 0.0 | 0.00 | 0.00 | 0.00 | 98 | 1006.1 |
| 20260830061533 | 54 | 122 | 0.0 | 0.0 | 0.00 | 0.00 | 0.00 | 98 | 1006.0 |
| 20260830061033 | 54 | 122 | 0.0 | 0.0 | 0.00 | 0.00 | 0.00 | 98 | 1006.2 |
| 20260830060526 | 54 | 121 | 0.0 | 0.0 | 0.00 | 0.00 | 0.00 | 98 | 1006.3 |
| 20260830060033 | 54 | 122 | 0.0 | 0.0 | 0.00 | 0.00 | 0.00 | 98 | 1006.3 |
| 20260830055535 | 54 | 122 | 0.0 | 0.0 | 0.00 | 0.00 | 0.00 | 98 | 1006.2 |
| 20260830055025 | 54 | 121 | 0.0 | 0.0 | 0.00 | 0.00 | 0.00 | 98 | 1006.2 |
| 20260830054524 | 54 | 121 | 0.0 | 0.0 | 0.00 | 0.00 | 0.00 | 98 | 1006.3 |
| 20260830054034 | 55 | 121 | 0.0 | 0.0 | 0.00 | 0.00 | 0.00 | 98 | 1006.3 |
| 20260830053523 | 55 | 122 | 0.0 | 0.0 | 0.00 | 0.00 | 0.00 | 98 | 1006.3 |
| 20260830053051 | 55 | 122 | 0.0 | 0.0 | 0.00 | 0.00 | 0.00 | 98 | 1006.2 |
| 20260830052528 | 55 | 122 | 0.0 | 0.0 | 0.00 | 0.00 | 0.00 | 98 | 1006.3 |
| 20260830052038 | 55 | 122 | 0.0 | 0.0 | 0.00 | 0.00 | 0.00 | 98 | 1006.3 |
| 20260830051542 | 55 | 122 | 0.0 | 0.0 | 0.00 | 0.00 | 0.00 | 98 | 1006.3 |